Flag for Spain Weather past 2 weeks in Santander, Spain

Now
64 °F

Sunny.


Feels Like: 64 °F
Forecast: 53 / 77 °F
Wind: No wind

Location: Santander / Parayas

Current Time: Oct 23, 2014 at 8:38:04 PM

Latest Report: Oct 23, 2014 at 8:00 PM


Visibility: 10 mi

Pressure: 30.18 "Hg

Humidity: 68%

Dew point: 54 °F

Location of SantanderLocation

Historic Weather in Santander — Graph

°F

Santander temperature yesterday

Maximum temperature yesterday: 66 °F (at 1:00 PM)
Minimum temperature yesterday: 55 °F (at 10:30 PM)
Average temperature yesterday: 62 °F

Past Weeks' High & Low Weather Summary

 TemperatureHumidityPressure
High86 °F (Oct 18, 3:30 PM)100% (Oct 8, 10:00 PM)30.48 "Hg (Oct 8, 10:00 PM)
Low48 °F (Oct 23, 6:30 AM)25% (Oct 18, 4:00 PM)29.50 "Hg (Oct 12, 7:30 AM)
Average66 °F72%29.94 "Hg
* Reported Oct 8 7:00 PM — Oct 23 7:30 PM, Santander, Weather by CustomWeather, © 2014

Note: Actual official high and low records may vary slightly from our data, if they occured in-between our weather recording intervals... More about our weather records

Advertising

Santander weather history for previous 24 hours

 ConditionsComfort  
Time TempWeatherWind HumidityBarometerVisibility
7:30 PM
Oct 23
66 °FSunny.No wind68%30.18 "Hg10 mi
7:00 PM68 °FSunny.No wind56%30.18 "Hg10 mi
6:30 PM70 °FSunny.No wind50%30.18 "Hg10 mi
6:00 PM68 °FSunny.1 mph60%30.18 "Hg10 mi
5:30 PM70 °FSunny.2 mph53%30.18 "Hg10 mi
5:00 PM70 °FPassing clouds.3 mph53%30.21 "HgN/A
4:30 PM72 °FPassing clouds.3 mph36%30.21 "HgN/A
4:00 PM70 °FSunny.1 mph40%30.21 "Hg10 mi
3:30 PM70 °FSunny.2 mph43%30.21 "Hg10 mi
3:00 PM70 °FSunny.1 mph40%30.21 "Hg10 mi
2:30 PM70 °FSunny.1 mph27%30.24 "Hg10 mi
2:00 PM68 °FSunny.No wind40%30.24 "Hg10 mi
1:30 PM66 °FSunny.No wind49%30.24 "Hg10 mi
1:00 PM64 °FSunny.1 mph49%30.24 "Hg10 mi
12:30 PM63 °FSunny.1 mph49%30.27 "Hg10 mi
12:00 PM61 °FSunny.No wind52%30.27 "Hg10 mi
11:30 AM59 °FSunny.No wind59%30.27 "Hg10 mi
11:00 AM57 °FSunny.No wind67%30.27 "Hg10 mi
10:30 AM54 °FSunny.No wind77%30.27 "Hg10 mi
10:00 AM52 °FSunny.1 mph82%30.27 "Hg10 mi
9:30 AM50 °FClear.2 mph76%30.27 "Hg10 mi
9:00 AM48 °FClear.1 mph82%30.27 "Hg10 mi
8:30 AM50 °FClear.1 mph71%30.27 "Hg10 mi
8:00 AM48 °FClear.No wind82%30.27 "Hg10 mi
7:30 AM48 °FClear.No wind76%30.27 "Hg10 mi
7:00 AM48 °FClear.No wind87%30.27 "Hg10 mi
6:30 AM48 °FClear.1 mph87%30.27 "Hg10 mi
6:00 AM50 °FClear.2 mph88%30.27 "Hg10 mi
5:30 AM50 °FClear.1 mph82%30.30 "Hg10 mi
11:00 PM
Oct 22
55 °FClear.No wind88%30.36 "Hg10 mi
10:30 PM55 °FClear.No wind82%30.39 "Hg10 mi
10:00 PM57 °FClear.No wind82%30.39 "Hg10 mi
9:30 PM59 °FClear.2 mph77%30.39 "Hg10 mi
9:00 PM59 °FPassing clouds.3 mph77%30.39 "HgN/A
8:30 PM59 °FPassing clouds.3 mph77%30.39 "HgN/A
8:00 PM61 °FSunny.5 mph72%30.39 "Hg10 mi
Weather by CustomWeather, © 2014

See weather overviewHow to use our weather pages